SHIYAN 5 (SY-5)

Satellite information

Favourite Embed

Satellite Type and Status

PAYLOADIN ORBIT

Key statistics

Satellite SHIYAN 5 (SY-5) at a glance.

Uptime

4350

Days in orbit

Revolutions

≈ 14.4

Per day

Orbit

SSO

Sun Synchronous Orbit

Inclination

98.1

Latest

Satellite identification and parameters

Extended collection of information and parameters for SHIYAN 5 (SY-5).

Object identification

Identified? True

Debris? False

Object name: SHIYAN 5 (SY-5)

International designator: 2013-068A

Object number (NORAD): 39455

Object ID (CCSDS): 39455

Country: PEOPLES REPUBLIC OF CHINA (PRC)

Current information (Y/N): Y

RCS size: LARGE

Orbital parameters

Period: 99.758 minutes

Inclination: 98.1009 deg

SMA: 7125.1 km

Apoapsis: 756.398 km

Periapsis: 737.531 km

RAAN: 173.8834 deg

Eccentricy: 0.001324

Argument of periapsis: 310.6447 deg

Mean anomaly: 49.3593 deg

Mean motion: 14.43498573 rev/day

Mean motion (dot): 0.00000477 rev/day2

B* drag term: 0.00015304716 1/REarth

Two-line elements (TLE)

Creation date: Oct. 23, 2025, 2:46 a.m.

Reference frame: TEME

Reference center: EARTH

Epoch: Oct. 22, 2025, 11 p.m. UTC

TLE line 0: 0 SHIYAN 5 (SY-5)

TLE line 1: 1 39455U 13068A 25295.95901023 .00000477 00000-0 15305-3 0 9991

TLE line 2: 2 39455 98.1009 173.8834 0013240 310.6447 49.3593 14.43498573627404

Live tracking on map

Real-time ground track for satellite SHIYAN 5 (SY-5).

In-orbit conjunctions

There are no conjunctions computed for SHIYAN 5 (SY-5), at the moment. Check back to stay up to date, as we update our databases every day.

Go to all conjunctions

Associated space launch

SHIYAN 5 (SY-5) was lifted into orbit during the mission ‘Long March 2D | Shiyan Weixing 5’, on board a Long March 2D space rocket.

The launch took place on Nov. 25, 2013, 2:12 a.m. from Launch Area 4 (SLS-2 / 603).

For more information about the launch, click the button.

Launch to space Long March 2D | Shiyan Weixing 5
Long March 2D | Shiyan Weixing 5

Agency: N/A

Status: Launch Successful

Launch date: Nov. 25, 2013, 2:12 a.m. UTC

Rocket: Long March 2D

Launch pad: Launch Area 4 (SLS-2 / 603)

Location: Jiuquan Satellite Launch Center, People's Republic of China

...

Latest news about this satellite

There are no fresh news available about this satellite. Check back as we update our databases every day.


Newsletter sign-up

Weekly statistics, charts and insights to help you stay on top of the space industry.